Temperature
19 20 20 20 20 20 20 20 21 21 20 20 20 20 20 20 20 20 20 20 20 20 20 20 20 19 19 19 19 19 19 19 19 19 19 19 19 19 19 18 19 19 18
20 20 20 20 20 20 20 20 20 20 20 20 20 20 20 20 20 20 20 20 20 20 20 20 20 19 19 19 19 19 19 19 19 19 19 19 19 19 19 19 19 19 18
20 20 20 20 20 20 20 20 20 20 20 20 20 20 20 20 20 20 20 20 20 20 20 20 19 19 19 19 19 19 19 19 19 19 19 19 19 19 19 19 19 19 19
21 20 20 20 20 20 20 20 20 20 20 20 20 20 20 20 20 20 20 20 20 20 20 19 19 19 19 19 19 19 19 19 19 19 19 19 19 19 19 19 19 19 19
21 20 20 20 20 20 20 20 20 20 20 20 20 20 20 20 20 20 20 20 20 20 20 19 19 19 19 19 19 19 19 19 19 19 19 19 19 19 19 19 19 18 18
21 20 20 20 20 20 20 20 20 20 20 20 20 20 20 20 20 20 20 20 20 20 20 19 19 19 19 19 19 19 18 18 19 19 18 19 19 19 19 19 19 18 18
21 21 21 21 21 20 20 20 20 20 20 20 20 20 20 20 20 20 20 20 20 20 20 19 19 19 19 19 19 18 18 18 18 18 19 18 19 19 19 19 18 18 18
20 20 20 20 20 20 20 20 20 20 20 20 20 20 19 19 19 19 19 20 20 20 19 19 19 19 19 19 19 18 18 18 18 18 18 18 18 18 19 19 18 18 18
19 19 19 19 19 20 20 20 20 20 20 20 20 19 19 19 19 19 19 19 19 19 19 19 19 19 19 19 18 18 18 18 18 18 18 18 18 18 19 19 18 18 18
19 19 19 19 19 19 19 19 19 19 19 19 19 19 19 19 19 19 19 19 19 19 19 19 19 19 19 18 18 18 18 18 18 18 18 18 18 18 19 18 18 18 18
19 19 19 19 19 19 19 19 19 19 19 19 19 19 19 19 19 19 19 19 19 19 19 19 19 19 19 18 18 18 18 18 18 18 18 18 18 18 19 19 18 18 18
18 18 18 18 19 19 19 19 19 19 19 19 19 19 19 19 19 19 19 19 18 18 19 19 19 19 19 19 18 18 18 18 18 18 18 18 18 18 18 18 18 18 18
18 18 18 18 18 18 18 19 19 19 19 19 19 19 19 19 19 19 19 19 18 18 18 19 19 19 19 19 18 18 18 18 18 18 18 18 18 18 18 18 18 18 18
17 17 17 17 17 18 18 18 18 18 18 18 18 18 18 18 19 19 19 19 18 18 18 18 19 19 19 19 18 18 18 18 18 18 18 18 18 18 18 18 18 18 18
17 17 17 17 17 17 17 17 17 18 18 18 18 18 18 18 18 18 18 18 18 18 18 18 18 19 19 18 18 18 18 18 18 18 18 18 18 18 18 18 18 18 18
17 16 16 16 16 16 17 17 17 17 17 17 18 18 18 18 18 18 18 18 18 18 18 18 18 18 18 18 18 18 18 18 18 18 18 18 18 18 18 18 18 18 18
16 16 16 16 16 16 16 16 16 17 17 17 17 17 18 18 18 18 18 18 18 18 18 18 18 18 18 18 18 19 18 18 18 18 18 18 18 18 18 18 18 18 18
15 15 15 15 15 15 15 16 16 16 16 17 17 17 17 17 17 18 18 18 18 18 18 18 18 18 18 18 18 19 19 19 19 18 18 18 18 18 18 18 18 18 18
15 15 15 15 15 15 15 15 15 15 16 16 16 16 17 17 17 17 17 18 17 17 17 17 17 18 18 18 18 19 19 19 19 19 18 18 18 18 18 18 18 18 18
14 14 14 14 14 14 15 15 15 15 15 15 16 16 16 16 16 17 17 17 17 17 17 17 17 17 18 18 18 18 19 19 19 19 19 18 18 18 18 18 18 18 18
14 14 13 13 13 14 14 14 15 15 15 15 15 15 15 16 16 16 16 17 17 17 17 17 17 17 17 18 18 18 18 19 19 19 19 18 18 18 18 18 18 18 18
13 13 13 13 13 13 13 13 14 14 14 14 15 15 15 15 16 16 16 16 17 17 17 17 17 17 17 17 17 18 18 18 18 18 18 18 18 18 18 18 18 18 18
13 13 13 13 13 13 13 13 13 14 14 14 14 15 15 15 15 15 16 16 16 16 17 17 17 17 17 17 17 17 18 18 18 18 18 18 18 18 18 18 18 18 18
13 13 12 12 12 13 13 13 13 13 13 14 14 14 15 15 15 15 15 16 16 16 16 17 17 17 17 17 17 17 18 18 18 18 18 18 18 18 18 18 18 18 18
13 13 12 12 12 12 12 12 13 13 13 13 13 14 14 14 15 15 15 15 16 16 16 16 16 16 16 17 17 17 17 17 17 18 18 18 18 18 18 18 18 18 18
13 13 12 12 12 12 12 12 12 12 12 13 13 13 14 14 14 15 15 15 15 15 16 16 16 16 16 16 16 16 16 17 17 17 18 18 17 17 17 17 17 17 17
Wind_Speed
6 9 14 14 14 14 13 13 13 12 11 11 10 10 10 9 9 9 9 9 9 8 8 8 8 8 9 9 9 9 9 9 9 10 10 11 12 12 11 11 11 10 11
9 12 14 14 14 13 13 13 12 11 11 10 10 9 9 9 8 8 8 8 8 7 7 7 7 7 7 7 7 8 8 8 8 8 9 10 11 11 11 11 10 9 10
11 13 13 13 13 13 13 12 12 11 11 10 10 9 9 8 8 7 7 7 6 6 6 6 6 6 6 6 6 6 6 7 6 6 8 8 9 10 10 10 10 10 10
13 13 12 13 13 12 12 11 11 11 10 10 10 9 9 8 7 7 6 6 6 6 5 5 5 6 6 5 5 4 5 6 6 7 7 6 7 9 9 9 9 9 9
13 13 13 14 12 12 11 10 10 10 9 9 9 9 9 8 7 7 6 6 5 5 5 5 5 5 5 5 4 3 4 5 6 8 9 8 7 9 9 9 8 8 8
12 14 15 15 13 12 11 10 10 9 9 9 8 8 8 8 7 7 6 6 5 5 5 5 5 5 5 4 3 2 2 4 7 8 9 8 7 8 9 9 8 8 7
11 13 15 16 15 13 12 11 10 10 9 9 8 8 8 8 8 7 7 6 6 5 5 5 5 5 5 4 3 2 1 3 7 8 8 7 7 8 8 8 8 8 8
10 10 12 15 15 14 13 12 12 11 10 10 10 9 9 9 8 8 7 7 6 6 6 6 6 6 5 5 5 4 3 2 6 7 8 7 7 8 8 7 7 7 8
6 4 3 8 11 13 13 13 13 13 12 11 11 11 10 10 9 9 9 8 8 7 7 7 7 7 7 7 6 6 4 3 5 7 8 8 8 9 8 7 7 7 7
8 7 5 3 2 7 10 13 13 14 14 13 13 12 12 12 11 11 10 10 9 9 9 8 8 8 8 8 8 7 5 3 4 7 8 9 10 9 8 8 7 8 7
6 4 5 5 5 3 6 10 13 13 14 14 13 14 13 12 11 11 11 12 12 11 11 10 10 10 9 9 9 8 5 4 4 7 10 11 11 10 9 8 8 8 7
6 4 4 4 5 5 4 5 7 9 10 11 12 12 12 12 12 11 12 14 14 13 12 12 11 11 10 9 9 9 6 6 6 8 10 13 12 11 10 9 8 8 7
4 4 3 2 4 4 4 4 3 4 6 8 11 12 11 10 10 10 9 10 13 14 11 11 11 10 9 8 8 8 7 7 7 10 11 14 13 12 11 10 9 8 8
4 4 3 2 2 2 3 3 3 3 3 4 7 10 9 6 6 6 6 8 9 9 8 8 7 9 10 10 10 8 9 8 9 11 14 16 14 13 12 11 10 9 8
6 5 5 4 3 2 2 3 2 3 4 5 6 8 9 6 5 5 5 6 7 7 7 6 6 7 7 8 10 10 8 9 11 13 14 17 16 14 13 12 11 10 9
8 7 6 5 4 3 3 3 3 4 5 6 6 8 8 8 5 4 5 5 6 7 7 7 7 6 6 6 7 9 9 10 12 14 14 16 17 16 14 13 12 11 10
8 8 8 7 4 4 4 4 3 5 5 5 6 8 7 8 7 5 5 6 6 9 9 7 7 6 6 7 8 8 7 10 13 13 14 14 15 16 16 14 13 13 12
9 9 9 9 8 7 5 4 4 5 5 5 7 7 8 9 9 6 5 6 7 8 6 6 6 6 6 6 6 6 6 7 11 13 14 14 14 13 15 16 14 14 13
9 9 9 9 8 7 6 5 5 5 4 5 6 6 7 8 9 7 6 6 7 6 6 7 7 5 5 5 6 5 6 7 9 11 10 13 14 14 15 16 16 15 14
8 9 9 9 9 8 6 5 4 4 4 5 5 6 7 7 8 7 5 6 6 6 7 7 7 5 4 5 5 5 5 6 7 9 10 11 12 14 15 15 15 15 16
9 9 9 9 9 7 5 5 5 5 5 5 4 6 7 7 7 5 5 6 6 7 9 9 6 6 5 3 2 2 0 2 5 7 7 8 8 12 14 14 14 13 14
8 8 8 8 8 7 5 5 4 5 5 5 5 5 7 6 7 5 6 6 7 6 8 8 6 5 5 5 4 3 2 1 1 3 5 7 8 8 10 14 14 14 14
7 8 8 8 8 8 8 5 5 4 4 4 5 5 5 6 6 5 6 6 7 7 8 8 8 8 6 5 4 5 5 5 3 1 3 4 6 7 7 9 12 14 15
6 7 7 8 8 8 7 6 6 5 5 5 5 6 7 6 5 5 5 6 7 7 7 8 8 7 7 6 4 3 3 4 4 3 1 1 4 5 6 6 8 11 14
6 6 7 7 7 7 7 7 6 6 5 6 6 7 6 5 5 4 4 5 6 6 7 7 8 8 7 7 5 4 3 1 2 4 4 2 2 2 3 4 4 8 13
6 6 7 7 7 8 8 7 7 8 8 8 8 7 6 5 4 5 3 3 5 5 6 7 7 9 8 8 6 5 5 4 4 4 4 3 3 2 1 2 3 5 11
Wind_Direction
159 166 153 146 143 143 142 142 142 141 139 136 132 128 122 116 112 109 106 103 100 97 93 91 91 89 84 81 78 74 73 74 75 77 76 77 76 78 88 94 92 92 96
155 160 152 148 145 145 146 146 146 147 146 144 143 140 136 130 124 119 116 112 108 104 101 98 97 96 92 88 82 75 72 72 77 81 81 78 80 83 89 95 94 95 95
146 151 150 148 146 146 148 150 151 151 151 151 151 150 148 143 136 130 125 119 117 115 111 109 108 106 102 97 89 79 70 64 69 87 93 85 84 87 90 94 97 98 98
145 149 151 149 146 146 147 149 151 153 154 155 156 156 155 152 148 143 138 134 131 130 127 124 120 118 117 113 103 85 67 57 70 94 105 97 90 92 92 93 95 99 99
147 151 153 152 150 149 149 151 152 154 156 159 161 163 163 161 159 157 155 151 147 145 144 140 136 132 130 129 118 93 72 65 82 105 111 102 95 97 94 92 92 99 102
150 155 159 158 157 157 157 158 160 162 164 167 169 170 171 172 173 172 170 166 163 161 159 157 155 154 150 148 145 126 86 77 100 119 122 114 107 104 97 94 92 95 102
154 161 166 165 165 167 168 169 171 174 175 178 182 184 186 187 187 185 184 180 176 174 172 171 174 177 176 173 177 179 145 95 123 132 137 128 120 111 104 100 97 97 103
151 160 171 173 174 177 179 181 183 186 188 190 192 193 196 196 196 196 195 190 187 187 187 186 190 195 195 194 196 198 190 142 130 144 152 149 138 123 114 108 107 102 101
83 105 158 187 188 190 193 195 196 197 198 199 202 203 203 204 207 206 205 202 200 200 201 202 204 208 209 209 210 211 204 166 142 157 166 165 153 137 127 118 114 111 107
52 42 31 20 245 216 213 213 210 209 208 208 210 211 210 211 213 214 213 211 212 211 211 211 212 215 217 220 222 222 211 170 159 178 176 176 161 146 139 130 125 122 118
50 34 27 26 5 319 247 231 226 224 220 217 217 218 216 213 215 219 219 216 218 217 217 217 218 220 223 227 230 231 217 166 169 177 179 181 167 158 151 143 138 136 130
27 22 26 12 359 353 319 275 242 233 230 225 224 222 220 214 214 220 224 226 224 222 220 221 223 224 227 231 237 237 219 183 177 184 190 184 173 165 159 153 149 146 142
13 10 8 357 355 352 335 327 307 257 244 235 230 224 221 217 217 222 221 230 229 223 219 224 227 226 225 228 235 233 222 199 191 191 196 189 179 173 167 162 159 156 154
8 349 329 321 320 329 334 329 318 302 276 254 242 230 221 216 213 215 217 218 212 207 206 216 222 228 231 234 236 234 224 209 194 193 197 192 184 178 173 170 167 165 163
359 343 322 306 306 302 310 310 324 304 291 279 264 241 223 218 215 208 210 206 203 202 206 215 222 227 233 238 238 232 221 209 196 190 194 193 185 181 177 175 174 172 171
359 348 335 313 297 297 288 281 280 285 279 276 270 259 241 228 222 208 202 198 197 205 215 221 224 226 232 232 235 230 219 201 195 188 189 189 188 184 180 180 179 179 177
359 354 349 342 333 308 297 284 284 283 286 280 275 270 256 240 227 215 207 204 200 204 214 224 232 230 237 236 236 227 213 194 186 185 186 186 189 188 184 184 184 183 182
1 355 351 355 352 340 323 305 298 290 287 281 281 275 261 247 234 218 211 212 201 197 202 217 229 230 236 235 226 213 195 179 179 183 184 187 187 188 190 189 188 186 187
2 354 352 349 348 341 330 316 305 301 293 289 286 280 270 254 241 228 216 211 197 194 197 213 214 214 224 226 218 202 182 174 177 182 184 189 190 188 189 195 192 189 190
359 356 353 351 347 340 331 324 316 311 301 293 282 277 277 266 250 235 227 216 199 197 198 199 200 205 216 210 212 198 184 180 178 182 188 190 193 192 192 191 192 194 195
356 355 351 350 345 344 339 331 321 314 307 302 289 283 281 274 260 234 234 223 207 204 203 195 188 196 214 198 167 175 273 187 185 186 185 182 189 193 194 193 193 193 197
347 346 344 343 338 339 330 313 291 291 290 287 291 296 289 278 265 247 227 223 216 211 208 199 187 181 200 190 164 143 158 288 264 202 184 184 187 185 189 195 196 195 195
342 339 340 333 333 332 333 327 323 316 309 317 317 307 294 287 272 254 238 225 217 209 211 206 195 185 195 202 183 158 160 199 215 246 197 183 177 177 184 187 195 199 197
326 329 333 331 331 332 337 343 342 334 319 305 304 297 300 292 281 264 247 232 223 213 209 207 201 197 188 195 198 194 174 156 159 183 250 174 167 170 177 185 194 198 198
319 325 330 332 332 332 336 339 341 334 315 309 311 310 312 306 294 281 256 234 226 218 213 208 201 197 198 196 187 172 164 146 144 151 173 169 137 154 168 177 180 189 195
317 324 331 336 332 335 338 341 345 338 336 337 335 332 326 316 305 301 280 248 232 220 215 212 205 198 204 201 196 186 175 170 176 165 161 168 168 179 158 156 169 177 186
Height
1550 1551 1552 1554 1555 1556 1556 1557 1558 1559 1559 1560 1561 1561 1561 1562 1562 1562 1562 1562 1562 1562 1562 1562 1562 1562 1563 1563 1563 1562 1562 1562 1561 1561 1560 1560 1559 1559 1559 1558 1558 1557 1558
1549 1551 1553 1554 1555 1556 1557 1557 1558 1559 1559 1560 1561 1561 1561 1562 1562 1562 1562 1562 1562 1562 1562 1562 1562 1563 1563 1563 1563 1563 1563 1563 1562 1562 1561 1561 1560 1560 1559 1559 1559 1558 1559
1550 1551 1553 1554 1555 1556 1557 1557 1558 1559 1559 1560 1560 1561 1561 1561 1562 1562 1562 1562 1562 1562 1562 1562 1562 1563 1563 1563 1564 1564 1564 1563 1563 1563 1563 1562 1562 1561 1560 1560 1560 1559 1559
1550 1552 1553 1554 1555 1556 1557 1557 1558 1558 1559 1559 1560 1560 1561 1561 1561 1561 1561 1561 1561 1561 1562 1562 1562 1562 1563 1563 1564 1564 1564 1564 1564 1564 1563 1563 1563 1562 1562 1561 1560 1560 1560
1551 1552 1553 1554 1555 1556 1556 1557 1557 1558 1558 1559 1559 1560 1560 1560 1561 1561 1561 1561 1561 1561 1561 1561 1562 1562 1563 1563 1564 1564 1564 1565 1565 1564 1564 1564 1564 1563 1563 1562 1561 1561 1561
1552 1553 1554 1554 1555 1555 1556 1556 1556 1557 1557 1558 1558 1559 1559 1559 1560 1560 1560 1560 1560 1560 1561 1561 1561 1562 1562 1563 1564 1564 1565 1565 1565 1565 1565 1565 1564 1564 1564 1563 1562 1562 1562
1552 1553 1554 1554 1555 1555 1555 1556 1556 1556 1556 1557 1557 1558 1558 1558 1559 1559 1559 1560 1560 1560 1560 1560 1560 1561 1562 1562 1563 1564 1564 1565 1565 1565 1565 1565 1565 1565 1564 1564 1563 1563 1563
1553 1553 1554 1554 1555 1555 1555 1555 1555 1555 1556 1556 1556 1556 1557 1557 1557 1558 1558 1559 1559 1559 1559 1559 1559 1560 1561 1561 1562 1563 1564 1565 1565 1565 1566 1566 1566 1565 1565 1564 1564 1564 1564
1552 1553 1553 1554 1554 1554 1554 1554 1554 1554 1554 1554 1554 1555 1555 1556 1556 1556 1557 1557 1557 1557 1558 1558 1558 1559 1559 1560 1561 1562 1563 1564 1565 1565 1566 1566 1566 1566 1565 1565 1565 1565 1565
1551 1551 1552 1552 1552 1553 1553 1553 1553 1552 1552 1553 1553 1553 1553 1554 1554 1555 1555 1556 1556 1556 1556 1557 1557 1557 1558 1559 1560 1561 1562 1563 1564 1565 1565 1566 1566 1566 1565 1565 1565 1565 1565
1551 1551 1550 1550 1550 1551 1550 1550 1550 1550 1550 1550 1550 1551 1551 1552 1552 1553 1553 1554 1554 1555 1555 1555 1556 1556 1557 1558 1559 1560 1561 1562 1563 1564 1565 1566 1566 1566 1565 1565 1565 1565 1566
1551 1550 1549 1549 1548 1548 1548 1547 1547 1547 1547 1548 1548 1548 1549 1549 1550 1550 1551 1552 1552 1553 1553 1554 1554 1555 1556 1557 1558 1559 1560 1562 1563 1564 1565 1565 1565 1565 1565 1564 1565 1565 1566
1551 1550 1549 1548 1547 1546 1545 1545 1544 1544 1544 1545 1545 1545 1546 1546 1546 1547 1548 1549 1550 1550 1551 1552 1553 1553 1554 1556 1557 1558 1559 1561 1562 1563 1564 1565 1565 1564 1564 1564 1564 1565 1566
1551 1549 1548 1547 1545 1544 1543 1542 1541 1541 1541 1541 1542 1542 1543 1543 1543 1544 1545 1546 1547 1548 1549 1550 1551 1552 1553 1554 1556 1557 1558 1560 1561 1562 1563 1564 1564 1563 1563 1563 1563 1564 1565
1550 1549 1547 1545 1544 1542 1541 1539 1538 1538 1538 1538 1538 1538 1539 1539 1539 1540 1541 1542 1543 1544 1546 1547 1549 1550 1551 1553 1554 1556 1557 1558 1560 1561 1562 1562 1563 1562 1562 1562 1562 1563 1565
1549 1547 1545 1544 1542 1540 1538 1537 1535 1534 1534 1534 1534 1534 1534 1535 1536 1536 1537 1538 1539 1541 1542 1544 1546 1548 1550 1551 1552 1554 1555 1557 1558 1559 1560 1561 1562 1561 1561 1561 1561 1562 1564
1547 1545 1543 1541 1539 1537 1535 1534 1532 1531 1530 1530 1530 1530 1530 1530 1531 1532 1533 1534 1535 1536 1538 1541 1543 1546 1547 1549 1550 1551 1553 1554 1556 1557 1559 1560 1561 1560 1560 1560 1560 1561 1562
1546 1543 1541 1538 1536 1534 1532 1530 1529 1528 1527 1526 1525 1525 1525 1526 1526 1527 1528 1529 1531 1532 1533 1535 1538 1541 1544 1545 1547 1549 1550 1552 1553 1555 1557 1559 1559 1560 1559 1559 1559 1560 1561
1544 1541 1538 1535 1533 1531 1529 1527 1525 1524 1522 1521 1520 1520 1520 1521 1522 1522 1523 1524 1526 1527 1529 1531 1533 1536 1539 1542 1544 1546 1548 1549 1551 1553 1555 1556 1557 1558 1559 1559 1559 1559 1560
1542 1539 1535 1532 1530 1527 1525 1523 1521 1520 1518 1517 1516 1515 1515 1516 1516 1517 1518 1519 1521 1523 1524 1526 1528 1531 1534 1538 1540 1542 1545 1546 1548 1550 1552 1554 1555 1556 1557 1558 1558 1558 1559
1540 1536 1533 1530 1527 1524 1521 1519 1517 1515 1514 1512 1511 1511 1510 1511 1511 1512 1513 1514 1516 1517 1519 1522 1524 1526 1529 1533 1536 1538 1541 1543 1545 1547 1549 1551 1552 1554 1555 1556 1557 1558 1558
1539 1535 1532 1529 1525 1522 1519 1517 1514 1512 1510 1508 1507 1506 1506 1506 1506 1506 1507 1509 1511 1512 1514 1517 1519 1521 1524 1527 1530 1533 1536 1539 1540 1543 1545 1547 1549 1551 1552 1554 1555 1556 1557
1538 1535 1531 1527 1524 1521 1518 1515 1512 1509 1507 1505 1503 1502 1501 1501 1501 1501 1502 1504 1505 1507 1509 1511 1513 1516 1518 1522 1525 1528 1530 1532 1535 1538 1540 1543 1545 1547 1549 1551 1553 1554 1556
1538 1535 1531 1527 1523 1520 1517 1513 1510 1507 1504 1502 1500 1498 1497 1497 1496 1497 1497 1498 1500 1501 1503 1505 1507 1510 1513 1515 1519 1522 1525 1527 1530 1532 1536 1538 1541 1543 1545 1547 1549 1551 1553
1539 1535 1531 1527 1524 1520 1516 1513 1509 1506 1503 1500 1498 1495 1494 1493 1492 1492 1492 1493 1494 1496 1498 1500 1502 1504 1507 1509 1513 1516 1519 1522 1524 1527 1529 1533 1536 1538 1541 1543 1546 1548 1550
1539 1535 1531 1528 1524 1520 1516 1513 1509 1505 1502 1499 1496 1493 1491 1490 1489 1488 1488 1489 1490 1491 1493 1494 1496 1498 1501 1503 1506 1509 1512 1516 1519 1522 1524 1527 1530 1533 1536 1539 1541 1544 1546